Location: Unspecified
(0.0000°N, 0.0000°E)
Time: 16:53:01
(UTC+00:00)

Courier 1B Rocket - All Passes

Search period start: 18 June 2019 00:00
Search period end: 28 June 2019 00:00
Orbit: 920 x 1202 km, 28.2° (Epoch: 17 June)

Date Brightness Start Highest point End Pass type
(mag) Time Alt. Az. Time Alt. Az. Time Alt. Az.
18 Jun - 00:11:35 10° SW 00:18:20 33° SSE 00:24:42 10° E night (unlit)
18 Jun - 02:04:48 10° WSW 02:12:11 77° NNW 02:19:02 10° NE visible
18 Jun - 04:00:45 10° WNW 04:05:53 22° NNW 04:10:48 10° NNE visible
18 Jun - 11:41:40 10° NNW 11:46:40 24° NNE 11:51:53 10° E daylight
18 Jun - 13:33:39 10° WNW 13:40:14 87° NNE 13:47:23 10° ESE daylight
18 Jun - 15:28:14 10° W 15:34:05 28° SSW 15:40:17 10° SSE daylight
18 Jun - 17:28:53 10° SSW 17:29:00 10° SSW 17:29:07 10° SSW daylight
18 Jun - 23:10:52 10° SSW 23:16:51 24° SSE 23:22:37 10° ESE night (unlit)
19 Jun - 01:03:24 10° SW 01:11:00 73° SSE 01:18:02 10° ENE night (unlit)
19 Jun - 02:58:18 10° W 03:04:40 33° NNW 03:10:39 10° NNE visible
19 Jun - 10:41:53 10° N 10:45:27 15° NNE 10:49:05 10° ENE daylight
19 Jun - 12:32:53 10° NW 12:39:10 57° NNE 12:45:53 10° ESE daylight
19 Jun - 14:26:32 10° W 14:32:46 41° SSW 14:39:27 10° SE daylight
19 Jun - 16:23:50 10° SW 16:27:15 14° SSW 16:30:45 10° S daylight
19 Jun - 22:10:25 10° SSW 22:15:14 17° SSE 22:19:59 10° ESE night (unlit)
20 Jun - 00:02:15 10° SW 00:09:42 50° SSE 00:16:43 10° ENE night (unlit)
20 Jun - 01:56:16 10° WSW 02:03:28 50° NNW 02:10:10 10° NE visible
20 Jun - 03:53:46 10° WNW 03:57:27 15° NNW 04:01:00 10° N visible
20 Jun - 11:32:22 10° NW 11:38:06 36° NNE 11:44:08 10° E daylight
20 Jun - 13:25:11 10° WNW 13:31:35 61° SSW 13:38:28 10° SE daylight
20 Jun - 15:21:00 10° WSW 15:25:40 19° SSW 15:30:32 10° SSE daylight
20 Jun - 21:10:28 10° S 21:13:29 12° SSE 21:16:29 10° SE night (unlit)
20 Jun - 23:01:19 10° SW 23:08:18 35° SSE 23:15:01 10° E night (unlit)
21 Jun - 00:54:34 10° WSW 01:02:15 75° NNW 01:09:24 10° NE night (unlit)
21 Jun - 02:50:36 10° WNW 02:56:04 22° NNW 03:01:17 10° NNE visible
21 Jun - 10:32:07 10° NNW 10:37:00 24° NNE 10:42:00 10° E daylight
21 Jun - 12:24:09 10° WNW 12:30:31 89° NE 12:37:18 10° ESE daylight
21 Jun - 14:18:48 10° W 14:24:15 26° SSW 14:30:00 10° SSE daylight
21 Jun - 22:00:37 10° SSW 22:06:48 25° SSE 22:12:52 10° ESE night (unlit)
21 Jun - 23:53:10 10° SW 00:00:58 76° SSE 00:08:21 10° ENE night (unlit)
22 Jun - 01:48:06 10° W 01:54:46 34° NNW 02:01:04 10° NNE visible
22 Jun - 09:32:16 10° N 09:35:48 15° NNE 09:39:21 10° ENE daylight
22 Jun - 11:23:21 10° NW 11:29:30 58° NNE 11:35:55 10° ESE daylight
22 Jun - 13:17:05 10° W 13:23:00 38° SSW 13:29:18 10° SE daylight
22 Jun - 15:14:42 10° SW 15:17:23 12° SSW 15:20:08 10° S daylight
22 Jun - 21:00:13 10° SSW 21:05:11 18° SSE 21:10:08 10° ESE visible
22 Jun - 22:52:01 10° SW 22:59:37 52° SSE 23:06:57 10° ENE night (unlit)
23 Jun - 00:46:03 10° WSW 00:53:29 50° NNW 01:00:30 10° NE night (unlit)
23 Jun - 02:43:32 10° WNW 02:47:35 15° NNW 02:51:32 10° N visible
23 Jun - 10:22:48 10° NW 10:28:28 36° NNE 10:34:17 10° E daylight
23 Jun - 12:15:42 10° WNW 12:21:53 58° SSW 12:28:25 10° SE daylight
23 Jun - 14:11:41 10° WSW 14:15:52 17° SSW 14:20:12 10° SSE daylight
23 Jun - 20:00:22 10° S 20:03:27 13° SSE 20:06:33 10° SE visible
23 Jun - 21:51:08 10° SW 21:58:12 36° SSE 22:05:11 10° E night (unlit)
23 Jun - 23:44:21 10° WSW 23:52:11 74° NNW 23:59:39 10° NE night (unlit)
24 Jun - 01:40:23 10° WNW 01:46:09 23° NNW 01:51:40 10° NNE visible
24 Jun - 09:22:28 10° NNW 09:27:23 24° NNE 09:32:18 10° E daylight
24 Jun - 11:14:37 10° WNW 11:20:51 89° SW 11:27:22 10° ESE daylight
24 Jun - 13:09:26 10° W 13:14:30 25° SSW 13:19:50 10° SSE daylight
24 Jun - 20:50:30 10° SSW 20:56:42 26° SSE 21:02:56 10° E visible
24 Jun - 22:42:59 10° SW 22:50:51 77° SSE 22:58:31 10° ENE night (unlit)
25 Jun - 00:37:54 10° W 00:44:46 34° NNW 00:51:21 10° NE night (unlit)
25 Jun - 02:37:54 10° NNW 02:39:17 11° NNW 02:40:41 10° N visible
25 Jun - 08:22:28 10° NNW 08:26:10 16° NNE 08:29:49 10° ENE daylight
25 Jun - 10:13:45 10° NW 10:19:53 59° NNE 10:26:06 10° ESE daylight
25 Jun - 12:07:38 10° W 12:13:19 36° SSW 12:19:16 10° SE daylight
25 Jun - 14:05:52 10° SW 14:07:37 11° SSW 14:09:24 10° S daylight
25 Jun - 19:50:12 10° SSW 19:55:08 18° SSE 20:00:07 10° ESE visible
25 Jun - 21:41:54 10° SW 21:49:30 54° SSE 21:57:02 10° ENE night (unlit)
25 Jun - 23:35:52 10° WSW 23:43:24 50° NNW 23:50:42 10° NE night (unlit)
26 Jun - 01:33:16 10° WNW 01:37:40 16° NNW 01:41:56 10° NNE visible
26 Jun - 07:23:26 10° N 07:24:46 11° NNE 07:26:07 10° NNE daylight
26 Jun - 09:13:07 10° NW 09:18:53 37° NNE 09:24:36 10° E daylight
26 Jun - 11:06:10 10° WNW 11:12:16 55° SSW 11:18:31 10° SE daylight
26 Jun - 13:02:25 10° WSW 13:06:09 16° SSW 13:09:58 10° SSE daylight
26 Jun - 18:50:33 10° S 18:53:27 12° SSE 18:56:23 10° SE visible
26 Jun - 20:41:04 10° SW 20:48:05 37° SSE 20:55:11 10° E visible
26 Jun - 22:34:13 10° WSW 22:42:03 73° NNW 22:49:46 10° NE night (unlit)
27 Jun - 00:30:11 10° WNW 00:36:08 24° NNW 00:41:55 10° NNE night (unlit)
27 Jun - 08:12:39 10° NNW 08:17:46 25° NNE 08:22:46 10° E daylight
27 Jun - 10:05:01 10° WNW 10:11:16 86° SSW 10:17:35 10° ESE daylight
27 Jun - 12:00:01 10° WSW 12:04:51 23° SSW 12:09:48 10° SSE daylight
27 Jun - 19:40:32 10° SSW 19:46:38 26° SSE 19:52:52 10° E visible
27 Jun - 21:32:55 10° SW 21:40:42 79° SSE 21:48:32 10° ENE visible
27 Jun - 23:27:44 10° W 23:34:41 34° NNW 23:41:29 10° NE night (unlit)
